Tucumcari, NM

10:47 PM MDT on April 30, 2017 (GMT -0600)
Tucumcari Municipal

Weather History for KTCC - March, 2014

Change the Weather History Date:

Wednesday, March 5, 2014

  Actual Average Record
Temperature  
Mean Temperature 46 °F -  
Max Temperature 55 °F 60 °F 87 °F (1910)
Min Temperature 37 °F 29 °F -3 °F (1948)
Degree Days  
Heating Degree Days 19    
Moisture  
Dew Point 31 °F    
Average Humidity 53    
Maximum Humidity 73    
Minimum Humidity 33    
Precipitation  
Precipitation 0.00 in - - ()
Sea Level Pressure  
Sea Level Pressure 30.01 in    
Wind  
Wind Speed 16 mph (NNE)    
Max Wind Speed 29 mph    
Max Gust Speed 40 mph    
Visibility 10 miles    
Events      
Averages and records for this station are not official NWS values.
T = Trace of Precipitation, MM = Missing Value Source: NWS Daily Summary

Daily Weather History Graph

Daily Weather History Graph

Search for Another Location

Airport or City:

Trip Planner

Search our weather history database for the weather conditions in past years. The results will help you decide how hot, cold, wet, or windy it might be!

Date:

Astronomy

Mar. 05, 2014 Rise Set
Actual Time 6:18 AM MST 5:53 PM MST
Civil Twilight 5:53 AM MST 6:18 PM MST
Nautical Twilight 5:23 AM MST 6:48 PM MST
Astronomical Twilight 4:54 AM MST 7:17 PM MST
Moon 8:57 AM MST (3/5) 10:52 PM MST (3/5)
Length of Visible Light 12h 25m
Length of Day
11h 34m
Waxing Crescent, 24% of the Moon is Illuminated
Mar 5
Waxing Crescent
Mar 8
First Quarter
Mar 16
Full
Mar 23
Last Quarter
Mar 30
New

Hourly Weather History & Observations

Time (MST) Temp. Windchill Dew Point Humidity Pressure Visibility Wind Dir Wind Speed Gust Speed Precip Events Conditions
12:53 AM 53.1 °F - 34.0 °F 48% 29.70 in 10.0 mi West 13.8 mph - N/A   Mostly Cloudy
1:53 AM 52.0 °F - 36.0 °F 54% 29.69 in 10.0 mi WSW 13.8 mph - N/A   Overcast
2:53 AM 50.0 °F - 36.0 °F 59% 29.72 in 10.0 mi WNW 8.1 mph - N/A   Overcast
3:29 AM 50.0 °F - 32.0 °F 50% 29.86 in 10.0 mi North 26.5 mph - N/A   Overcast
3:53 AM 48.0 °F - 32.0 °F 54% 29.78 in 10.0 mi North 28.8 mph 40.3 mph N/A   Partly Cloudy
4:53 AM 46.0 °F 38.0 °F 32.0 °F 58% 29.86 in 10.0 mi North 21.9 mph 29.9 mph N/A   Clear
5:53 AM 45.0 °F 37.6 °F 30.0 °F 56% 29.94 in 10.0 mi North 17.3 mph 26.5 mph N/A   Overcast
6:53 AM 45.0 °F 36.6 °F 30.9 °F 58% 29.99 in 10.0 mi NNE 21.9 mph 31.1 mph N/A   Overcast
7:53 AM 46.0 °F 37.2 °F 30.9 °F 56% 30.03 in 10.0 mi NNE 26.5 mph 36.8 mph N/A   Overcast
8:53 AM 48.0 °F - 32.0 °F 54% 30.04 in 10.0 mi NE 26.5 mph 38.0 mph N/A   Overcast
9:53 AM 48.9 °F - 32.0 °F 52% 30.06 in 10.0 mi NNE 21.9 mph 27.6 mph N/A   Overcast
10:53 AM 50.0 °F - 32.0 °F 50% 30.08 in 10.0 mi NE 23.0 mph - N/A   Overcast
11:53 AM 53.1 °F - 32.0 °F 45% 30.06 in 10.0 mi NE 21.9 mph 28.8 mph N/A   Scattered Clouds
12:53 PM 53.1 °F - 30.9 °F 43% 30.06 in 10.0 mi NE 20.7 mph 29.9 mph N/A   Clear
1:53 PM 55.0 °F - 28.9 °F 37% 30.04 in 10.0 mi NE 13.8 mph 20.7 mph N/A   Clear
2:53 PM 55.9 °F - 28.0 °F 34% 30.05 in 10.0 mi NE 15.0 mph - N/A   Clear
3:53 PM 55.9 °F - 27.0 °F 33% 30.06 in 10.0 mi ENE 13.8 mph 20.7 mph N/A   Clear
4:53 PM 54.0 °F - 27.0 °F 35% 30.08 in 10.0 mi East 12.7 mph - N/A   Clear
5:53 PM 48.9 °F - 28.9 °F 46% 30.12 in 10.0 mi SE 8.1 mph - N/A   Clear
6:53 PM 43.0 °F 38.8 °F 30.0 °F 60% 30.14 in 10.0 mi SE 6.9 mph - N/A   Clear
7:53 PM 39.9 °F 35.1 °F 30.0 °F 68% 30.16 in 10.0 mi SE 6.9 mph - N/A   Clear
8:53 PM 39.0 °F 34.8 °F 28.9 °F 67% 30.17 in 10.0 mi SSW 5.8 mph - N/A   Clear
9:53 PM 37.0 °F 32.4 °F 28.9 °F 73% 30.18 in 10.0 mi SSW 5.8 mph - N/A   Clear
10:53 PM 37.0 °F 31.6 °F 28.9 °F 73% 30.18 in 10.0 mi West 6.9 mph - N/A   Clear
11:53 PM 37.0 °F 31.0 °F 28.9 °F 73% 30.18 in 10.0 mi West 8.1 mph - N/A   Clear